"Time","Value","Approval","myLocation"
"2023-05-06 00:00",2.215,"Approved","OW352"
"2023-05-06 01:00",2.213,"Approved","OW352"
"2023-05-06 02:00",2.211,"Approved","OW352"
"2023-05-06 03:00",2.209,"Approved","OW352"
"2023-05-06 04:00",2.209,"Approved","OW352"
"2023-05-06 05:00",2.398,"Approved","OW352"
"2023-05-06 06:00",2.42,"Approved","OW352"
"2023-05-06 07:00",2.433,"Approved","OW352"
"2023-05-06 08:00",2.437,"Approved","OW352"
"2023-05-06 09:00",2.249,"Approved","OW352"
"2023-05-06 10:00",2.241,"Approved","OW352"
"2023-05-06 11:00",2.241,"Approved","OW352"
"2023-05-06 12:00",2.237,"Approved","OW352"
"2023-05-06 13:00",2.278,"Approved","OW352"
"2023-05-06 14:00",2.295,"Approved","OW352"
"2023-05-06 15:00",2.306,"Approved","OW352"
"2023-05-06 16:00",2.311,"Approved","OW352"
"2023-05-06 17:00",2.322,"Approved","OW352"
"2023-05-06 18:00",2.331,"Approved","OW352"
"2023-05-06 19:00",2.298,"Approved","OW352"
"2023-05-06 20:00",2.295,"Approved","OW352"
"2023-05-06 21:00",2.295,"Approved","OW352"
"2023-05-06 22:00",2.294,"Approved","OW352"
"2023-05-06 23:00",2.299,"Approved","OW352"
"2023-05-07 00:00",2.49,"Approved","OW352"
"2023-05-07 01:00",2.516,"Approved","OW352"
"2023-05-07 02:00",2.527,"Approved","OW352"
"2023-05-07 03:00",2.363,"Approved","OW352"
"2023-05-07 04:00",2.336,"Approved","OW352"
"2023-05-07 05:00",2.328,"Approved","OW352"
"2023-05-07 06:00",2.327,"Approved","OW352"
"2023-05-07 07:00",2.322,"Approved","OW352"
"2023-05-07 08:00",2.323,"Approved","OW352"
"2023-05-07 09:00",2.528,"Approved","OW352"
"2023-05-07 10:00",2.545,"Approved","OW352"
"2023-05-07 11:00",2.56,"Approved","OW352"
"2023-05-07 12:00",2.543,"Approved","OW352"
"2023-05-07 13:00",2.373,"Approved","OW352"
"2023-05-07 14:00",2.362,"Approved","OW352"
"2023-05-07 15:00",2.359,"Approved","OW352"
"2023-05-07 16:00",2.357,"Approved","OW352"
"2023-05-07 17:00",2.389,"Approved","OW352"
"2023-05-07 18:00",2.405,"Approved","OW352"
"2023-05-07 19:00",2.418,"Approved","OW352"
"2023-05-07 20:00",2.43,"Approved","OW352"
"2023-05-07 21:00",2.436,"Approved","OW352"
"2023-05-07 22:00",2.443,"Approved","OW352"
"2023-05-07 23:00",2.404,"Approved","OW352"
"2023-05-08 00:00",2.4,"Approved","OW352"
"2023-05-08 01:00",2.397,"Approved","OW352"
"2023-05-08 02:00",2.393,"Approved","OW352"
"2023-05-08 03:00",2.393,"Approved","OW352"
"2023-05-08 04:00",2.394,"Approved","OW352"
"2023-05-08 05:00",2.597,"Approved","OW352"
"2023-05-08 06:00",2.611,"Approved","OW352"
"2023-05-08 07:00",2.625,"Approved","OW352"
"2023-05-08 08:00",2.566,"Approved","OW352"
"2023-05-08 09:00",2.433,"Approved","OW352"
"2023-05-08 10:00",2.421,"Approved","OW352"
"2023-05-08 11:00",2.42,"Approved","OW352"
"2023-05-08 12:00",2.411,"Approved","OW352"
"2023-05-08 13:00",2.453,"Approved","OW352"
"2023-05-08 14:00",2.468,"Approved","OW352"
"2023-05-08 15:00",2.475,"Approved","OW352"
"2023-05-08 16:00",2.481,"Approved","OW352"
"2023-05-08 17:00",2.493,"Approved","OW352"
"2023-05-08 18:00",2.499,"Approved","OW352"
"2023-05-08 19:00",2.464,"Approved","OW352"
"2023-05-08 20:00",2.455,"Approved","OW352"
"2023-05-08 21:00",2.451,"Approved","OW352"
"2023-05-08 22:00",2.452,"Approved","OW352"
"2023-05-08 23:00",2.453,"Approved","OW352"
"2023-05-09 00:00",2.641,"Approved","OW352"
"2023-05-09 01:00",2.667,"Approved","OW352"
"2023-05-09 02:00",2.681,"Approved","OW352"
"2023-05-09 03:00",2.619,"Approved","OW352"
"2023-05-09 04:00",2.483,"Approved","OW352"
"2023-05-09 05:00",2.465,"Approved","OW352"
"2023-05-09 06:00",2.464,"Approved","OW352"
"2023-05-09 07:00",2.46,"Approved","OW352"
"2023-05-09 08:00",2.488,"Approved","OW352"
"2023-05-09 09:00",2.508,"Approved","OW352"
"2023-05-09 10:00",2.513,"Approved","OW352"
"2023-05-09 11:00",2.523,"Approved","OW352"
"2023-05-09 12:00",2.524,"Approved","OW352"
"2023-05-09 13:00",2.534,"Approved","OW352"
"2023-05-09 14:00",2.492,"Approved","OW352"
"2023-05-09 15:00",2.486,"Approved","OW352"
"2023-05-09 16:00",2.484,"Approved","OW352"
"2023-05-09 17:00",2.481,"Approved","OW352"
"2023-05-09 18:00",2.475,"Approved","OW352"
"2023-05-09 19:00",2.677,"Approved","OW352"
"2023-05-09 20:00",2.696,"Approved","OW352"
"2023-05-09 21:00",2.709,"Approved","OW352"
"2023-05-09 22:00",2.713,"Approved","OW352"
"2023-05-09 23:00",2.52,"Approved","OW352"
"2023-05-10 00:00",2.5,"Approved","OW352"
"2023-05-10 01:00",2.49,"Approved","OW352"
"2023-05-10 02:00",2.488,"Approved","OW352"
"2023-05-10 03:00",2.476,"Approved","OW352"
"2023-05-10 04:00",2.517,"Approved","OW352"
"2023-05-10 05:00",2.528,"Approved","OW352"
"2023-05-10 06:00",2.533,"Approved","OW352"
"2023-05-10 07:00",2.538,"Approved","OW352"
"2023-05-10 08:00",2.545,"Approved","OW352"
"2023-05-10 09:00",2.546,"Approved","OW352"
"2023-05-10 10:00",2.504,"Approved","OW352"
"2023-05-10 11:00",2.497,"Approved","OW352"
"2023-05-10 12:00",2.492,"Approved","OW352"
"2023-05-10 13:00",2.489,"Approved","OW352"
"2023-05-10 14:00",2.487,"Approved","OW352"
"2023-05-10 15:00",2.533,"Approved","OW352"
"2023-05-10 16:00",2.543,"Approved","OW352"
"2023-05-10 17:00",2.547,"Approved","OW352"
"2023-05-10 18:00",2.555,"Approved","OW352"
"2023-05-10 19:00",2.56,"Approved","OW352"
"2023-05-10 20:00",2.562,"Approved","OW352"
"2023-05-10 21:00",2.515,"Approved","OW352"
"2023-05-10 22:00",2.507,"Approved","OW352"
"2023-05-10 23:00",2.499,"Approved","OW352"
"2023-05-11 00:00",2.495,"Approved","OW352"
"2023-05-11 01:00",2.492,"Approved","OW352"
"2023-05-11 02:00",2.699,"Approved","OW352"
"2023-05-11 03:00",2.712,"Approved","OW352"
"2023-05-11 04:00",2.713,"Approved","OW352"
"2023-05-11 05:00",2.534,"Approved","OW352"
"2023-05-11 06:00",2.504,"Approved","OW352"
"2023-05-11 07:00",2.493,"Approved","OW352"
"2023-05-11 08:00",2.479,"Approved","OW352"
"2023-05-11 09:00",2.475,"Approved","OW352"
"2023-05-11 10:00",2.524,"Approved","OW352"
"2023-05-11 11:00",2.528,"Approved","OW352"
"2023-05-11 12:00",2.533,"Approved","OW352"
"2023-05-11 13:00",2.54,"Approved","OW352"
"2023-05-11 14:00",2.543,"Approved","OW352"
"2023-05-11 15:00",2.55,"Approved","OW352"
"2023-05-11 16:00",2.503,"Approved","OW352"
"2023-05-11 17:00",2.495,"Approved","OW352"
"2023-05-11 18:00",2.49,"Approved","OW352"
"2023-05-11 19:00",2.486,"Approved","OW352"
"2023-05-11 20:00",2.68,"Approved","OW352"
"2023-05-11 21:00",2.702,"Approved","OW352"
"2023-05-11 22:00",2.71,"Approved","OW352"
"2023-05-11 23:00",2.718,"Approved","OW352"
"2023-05-12 00:00",2.513,"Approved","OW352"
"2023-05-12 01:00",2.496,"Approved","OW352"
"2023-05-12 02:00",2.482,"Approved","OW352"
"2023-05-12 03:00",2.476,"Approved","OW352"
"2023-05-12 04:00",2.484,"Approved","OW352"
"2023-05-12 05:00",2.514,"Approved","OW352"
"2023-05-12 06:00",2.519,"Approved","OW352"
"2023-05-12 07:00",2.523,"Approved","OW352"
"2023-05-12 08:00",2.53,"Approved","OW352"
"2023-05-12 09:00",2.531,"Approved","OW352"
"2023-05-12 10:00",2.531,"Approved","OW352"
"2023-05-12 11:00",2.494,"Approved","OW352"
"2023-05-12 12:00",2.483,"Approved","OW352"
"2023-05-12 13:00",2.479,"Approved","OW352"
"2023-05-12 14:00",2.479,"Approved","OW352"
"2023-05-12 15:00",2.626,"Approved","OW352"
"2023-05-12 16:00",2.682,"Approved","OW352"
"2023-05-12 17:00",2.699,"Approved","OW352"
"2023-05-12 18:00",2.703,"Approved","OW352"
"2023-05-12 19:00",2.706,"Approved","OW352"
"2023-05-12 20:00",2.502,"Approved","OW352"
"2023-05-12 21:00",2.487,"Approved","OW352"
"2023-05-12 22:00",2.473,"Approved","OW352"
"2023-05-12 23:00",2.465,"Approved","OW352"
"2023-05-13 00:00",2.497,"Approved","OW352"
"2023-05-13 01:00",2.507,"Approved","OW352"
"2023-05-13 02:00",2.509,"Approved","OW352"
"2023-05-13 03:00",2.509,"Approved","OW352"
"2023-05-13 04:00",2.51,"Approved","OW352"
"2023-05-13 05:00",2.51,"Approved","OW352"
"2023-05-13 06:00",2.489,"Approved","OW352"
"2023-05-13 07:00",2.46,"Approved","OW352"
"2023-05-13 08:00",2.453,"Approved","OW352"
"2023-05-13 09:00",2.447,"Approved","OW352"
"2023-05-13 10:00",2.437,"Approved","OW352"
"2023-05-13 11:00",2.641,"Approved","OW352"
"2023-05-13 12:00",2.657,"Approved","OW352"
"2023-05-13 13:00",2.661,"Approved","OW352"
"2023-05-13 14:00",2.665,"Approved","OW352"
"2023-05-13 15:00",2.514,"Approved","OW352"
"2023-05-13 16:00",2.464,"Approved","OW352"
"2023-05-13 17:00",2.45,"Approved","OW352"
"2023-05-13 18:00",2.433,"Approved","OW352"
"2023-05-13 19:00",2.582,"Approved","OW352"
"2023-05-13 20:00",2.629,"Approved","OW352"
"2023-05-13 21:00",2.635,"Approved","OW352"
"2023-05-13 22:00",2.633,"Approved","OW352"
"2023-05-13 23:00",2.633,"Approved","OW352"
"2023-05-14 00:00",2.427,"Approved","OW352"
"2023-05-14 01:00",2.406,"Approved","OW352"
"2023-05-14 02:00",2.391,"Approved","OW352"
"2023-05-14 03:00",2.378,"Approved","OW352"
"2023-05-14 04:00",2.409,"Approved","OW352"
"2023-05-14 05:00",2.374,"Approved","OW352"
"2023-05-14 06:00",2.362,"Approved","OW352"
"2023-05-14 07:00",2.354,"Approved","OW352"
"2023-05-14 08:00",2.347,"Approved","OW352"
"2023-05-14 09:00",2.339,"Approved","OW352"
"2023-05-14 10:00",2.334,"Approved","OW352"
"2023-05-14 11:00",2.327,"Approved","OW352"
"2023-05-14 12:00",2.325,"Approved","OW352"
"2023-05-14 13:00",2.319,"Approved","OW352"
"2023-05-14 14:00",2.318,"Approved","OW352"
"2023-05-14 15:00",2.315,"Approved","OW352"
"2023-05-14 16:00",2.349,"Approved","OW352"
"2023-05-14 17:00",2.36,"Approved","OW352"
"2023-05-14 18:00",2.363,"Approved","OW352"
"2023-05-14 19:00",2.36,"Approved","OW352"
"2023-05-14 20:00",2.36,"Approved","OW352"
"2023-05-14 21:00",2.354,"Approved","OW352"
"2023-05-14 22:00",2.347,"Approved","OW352"
"2023-05-14 23:00",2.346,"Approved","OW352"
"2023-05-15 00:00",2.34,"Approved","OW352"
"2023-05-15 01:00",2.293,"Approved","OW352"
"2023-05-15 02:00",2.279,"Approved","OW352"
"2023-05-15 03:00",2.26,"Approved","OW352"
"2023-05-15 04:00",2.247,"Approved","OW352"
"2023-05-15 05:00",2.24,"Approved","OW352"
"2023-05-15 06:00",2.229,"Approved","OW352"
"2023-05-15 07:00",2.41,"Approved","OW352"
"2023-05-15 08:00",2.422,"Approved","OW352"
"2023-05-15 09:00",2.43,"Approved","OW352"
"2023-05-15 10:00",2.25,"Approved","OW352"
"2023-05-15 11:00",2.257,"Approved","OW352"
"2023-05-15 12:00",2.223,"Approved","OW352"
"2023-05-15 13:00",2.393,"Approved","OW352"
"2023-05-15 14:00",2.411,"Approved","OW352"
"2023-05-15 15:00",2.418,"Approved","OW352"
"2023-05-15 16:00",2.419,"Approved","OW352"
"2023-05-15 17:00",2.419,"Approved","OW352"
"2023-05-15 18:00",2.419,"Approved","OW352"
"2023-05-15 19:00",2.415,"Approved","OW352"
"2023-05-15 20:00",2.411,"Approved","OW352"
"2023-05-15 21:00",2.408,"Approved","OW352"
"2023-05-15 22:00",2.399,"Approved","OW352"
"2023-05-15 23:00",2.388,"Approved","OW352"
"2023-05-16 00:00",2.387,"Approved","OW352"
"2023-05-16 01:00",2.375,"Approved","OW352"
"2023-05-16 02:00",2.374,"Approved","OW352"
"2023-05-16 03:00",2.187,"Approved","OW352"
"2023-05-16 04:00",2.157,"Approved","OW352"
"2023-05-16 05:00",2.143,"Approved","OW352"
"2023-05-16 06:00",2.132,"Approved","OW352"
"2023-05-16 07:00",2.161,"Approved","OW352"
"2023-05-16 08:00",2.167,"Approved","OW352"
"2023-05-16 09:00",2.322,"Approved","OW352"
"2023-05-16 10:00",2.326,"Approved","OW352"
"2023-05-16 11:00",2.333,"Approved","OW352"
"2023-05-16 12:00",2.197,"Approved","OW352"
"2023-05-16 13:00",2.144,"Approved","OW352"
"2023-05-16 14:00",2.138,"Approved","OW352"
"2023-05-16 15:00",2.133,"Approved","OW352"
"2023-05-16 16:00",2.259,"Approved","OW352"
"2023-05-16 17:00",2.325,"Approved","OW352"
"2023-05-16 18:00",2.337,"Approved","OW352"
"2023-05-16 19:00",2.343,"Approved","OW352"
"2023-05-16 20:00",2.346,"Approved","OW352"
"2023-05-16 21:00",2.161,"Approved","OW352"
"2023-05-16 22:00",2.14,"Approved","OW352"
"2023-05-16 23:00",2.129,"Approved","OW352"
"2023-05-17 00:00",2.12,"Approved","OW352"
"2023-05-17 01:00",2.113,"Approved","OW352"
"2023-05-17 02:00",2.296,"Approved","OW352"
"2023-05-17 03:00",2.305,"Approved","OW352"
"2023-05-17 04:00",2.31,"Approved","OW352"
"2023-05-17 05:00",2.314,"Approved","OW352"
"2023-05-17 06:00",2.314,"Approved","OW352"
"2023-05-17 07:00",2.124,"Approved","OW352"
"2023-05-17 08:00",2.11,"Approved","OW352"
"2023-05-17 09:00",2.105,"Approved","OW352"
"2023-05-17 10:00",2.103,"Approved","OW352"
"2023-05-17 11:00",2.142,"Approved","OW352"
"2023-05-17 12:00",2.153,"Approved","OW352"
"2023-05-17 13:00",2.161,"Approved","OW352"
"2023-05-17 14:00",2.169,"Approved","OW352"
"2023-05-17 15:00",2.175,"Approved","OW352"
"2023-05-17 16:00",2.178,"Approved","OW352"
"2023-05-17 17:00",2.184,"Approved","OW352"
"2023-05-17 18:00",2.153,"Approved","OW352"
"2023-05-17 19:00",2.14,"Approved","OW352"
"2023-05-17 20:00",2.13,"Approved","OW352"
"2023-05-17 21:00",2.124,"Approved","OW352"
"2023-05-17 22:00",2.296,"Approved","OW352"
"2023-05-17 23:00",2.308,"Approved","OW352"
"2023-05-18 00:00",2.313,"Approved","OW352"
"2023-05-18 01:00",2.316,"Approved","OW352"
"2023-05-18 02:00",2.17,"Approved","OW352"
"2023-05-18 03:00",2.112,"Approved","OW352"
"2023-05-18 04:00",2.097,"Approved","OW352"
"2023-05-18 05:00",2.124,"Approved","OW352"
"2023-05-18 06:00",2.134,"Approved","OW352"
"2023-05-18 07:00",2.136,"Approved","OW352"
"2023-05-18 08:00",2.146,"Approved","OW352"
"2023-05-18 09:00",2.145,"Approved","OW352"
"2023-05-18 10:00",2.152,"Approved","OW352"
"2023-05-18 11:00",2.157,"Approved","OW352"
"2023-05-18 12:00",2.167,"Approved","OW352"
"2023-05-18 13:00",2.169,"Approved","OW352"
"2023-05-18 14:00",2.137,"Approved","OW352"
"2023-05-18 15:00",2.131,"Approved","OW352"
"2023-05-18 16:00",2.127,"Approved","OW352"
"2023-05-18 17:00",2.127,"Approved","OW352"
"2023-05-18 18:00",2.312,"Approved","OW352"
"2023-05-18 19:00",2.321,"Approved","OW352"
"2023-05-18 20:00",2.328,"Approved","OW352"
"2023-05-18 21:00",2.326,"Approved","OW352"
"2023-05-18 22:00",2.153,"Approved","OW352"
"2023-05-18 23:00",2.126,"Approved","OW352"
"2023-05-19 00:00",2.11,"Approved","OW352"
"2023-05-19 01:00",2.103,"Approved","OW352"
"2023-05-19 02:00",2.097,"Approved","OW352"
"2023-05-19 03:00",2.129,"Approved","OW352"
"2023-05-19 04:00",2.133,"Approved","OW352"
"2023-05-19 05:00",2.136,"Approved","OW352"
"2023-05-19 06:00",2.14,"Approved","OW352"
"2023-05-19 07:00",2.142,"Approved","OW352"
"2023-05-19 08:00",2.147,"Approved","OW352"
"2023-05-19 09:00",2.151,"Approved","OW352"
"2023-05-19 10:00",2.154,"Approved","OW352"
"2023-05-19 11:00",2.161,"Approved","OW352"
"2023-05-19 12:00",2.123,"Approved","OW352"
"2023-05-19 13:00",2.121,"Approved","OW352"
"2023-05-19 14:00",2.12,"Approved","OW352"
"2023-05-19 15:00",2.12,"Approved","OW352"
"2023-05-19 16:00",2.308,"Approved","OW352"
"2023-05-19 17:00",2.321,"Approved","OW352"
"2023-05-19 18:00",2.328,"Approved","OW352"
"2023-05-19 19:00",2.331,"Approved","OW352"
"2023-05-19 20:00",2.337,"Approved","OW352"
"2023-05-19 21:00",2.15,"Approved","OW352"
"2023-05-19 22:00",2.133,"Approved","OW352"
"2023-05-19 23:00",2.129,"Approved","OW352"
"2023-05-20 00:00",2.124,"Approved","OW352"
"2023-05-20 01:00",2.153,"Approved","OW352"
"2023-05-20 02:00",2.163,"Approved","OW352"
"2023-05-20 03:00",2.17,"Approved","OW352"
"2023-05-20 04:00",2.173,"Approved","OW352"
"2023-05-20 05:00",2.179,"Approved","OW352"
"2023-05-20 06:00",2.181,"Approved","OW352"
"2023-05-20 07:00",2.183,"Approved","OW352"
"2023-05-20 08:00",2.191,"Approved","OW352"
"2023-05-20 09:00",2.195,"Approved","OW352"
"2023-05-20 10:00",2.171,"Approved","OW352"
"2023-05-20 11:00",2.161,"Approved","OW352"
"2023-05-20 12:00",2.156,"Approved","OW352"
"2023-05-20 13:00",2.156,"Approved","OW352"
"2023-05-20 14:00",2.194,"Approved","OW352"
"2023-05-20 15:00",2.206,"Approved","OW352"
"2023-05-20 16:00",2.212,"Approved","OW352"
"2023-05-20 17:00",2.218,"Approved","OW352"
"2023-05-20 18:00",2.224,"Approved","OW352"
"2023-05-20 19:00",2.228,"Approved","OW352"
"2023-05-20 20:00",2.232,"Approved","OW352"
"2023-05-20 21:00",2.231,"Approved","OW352"
"2023-05-20 22:00",2.192,"Approved","OW352"
"2023-05-20 23:00",2.182,"Approved","OW352"
"2023-05-21 00:00",2.174,"Approved","OW352"
"2023-05-21 01:00",2.169,"Approved","OW352"
"2023-05-21 02:00",2.304,"Approved","OW352"
"2023-05-21 03:00",2.358,"Approved","OW352"
"2023-05-21 04:00",2.368,"Approved","OW352"
"2023-05-21 05:00",2.371,"Approved","OW352"
"2023-05-21 06:00",2.376,"Approved","OW352"
"2023-05-21 07:00",2.377,"Approved","OW352"
"2023-05-21 08:00",2.198,"Approved","OW352"
"2023-05-21 09:00",2.184,"Approved","OW352"
"2023-05-21 10:00",2.175,"Approved","OW352"
"2023-05-21 11:00",2.171,"Approved","OW352"
"2023-05-21 12:00",2.209,"Approved","OW352"
"2023-05-21 13:00",2.22,"Approved","OW352"
"2023-05-21 14:00",2.23,"Approved","OW352"
"2023-05-21 15:00",2.24,"Approved","OW352"
"2023-05-21 16:00",2.245,"Approved","OW352"
"2023-05-21 17:00",2.251,"Approved","OW352"
"2023-05-21 18:00",2.261,"Approved","OW352"
"2023-05-21 19:00",2.235,"Approved","OW352"
"2023-05-21 20:00",2.224,"Approved","OW352"
"2023-05-21 21:00",2.221,"Approved","OW352"
"2023-05-21 22:00",2.215,"Approved","OW352"
"2023-05-21 23:00",2.338,"Approved","OW352"
"2023-05-22 00:00",2.406,"Approved","OW352"
"2023-05-22 01:00",2.421,"Approved","OW352"
"2023-05-22 02:00",2.429,"Approved","OW352"
"2023-05-22 03:00",2.432,"Approved","OW352"
"2023-05-22 04:00",2.241,"Approved","OW352"
"2023-05-22 05:00",2.228,"Approved","OW352"
"2023-05-22 06:00",2.226,"Approved","OW352"
"2023-05-22 07:00",2.388,"Approved","OW352"
"2023-05-22 08:00",2.419,"Approved","OW352"
"2023-05-22 09:00",2.43,"Approved","OW352"
"2023-05-22 10:00",2.438,"Approved","OW352"
"2023-05-22 11:00",2.446,"Approved","OW352"
"2023-05-22 12:00",2.258,"Approved","OW352"
"2023-05-22 13:00",2.246,"Approved","OW352"
"2023-05-22 14:00",2.241,"Approved","OW352"
"2023-05-22 15:00",2.239,"Approved","OW352"
"2023-05-22 16:00",2.274,"Approved","OW352"
"2023-05-22 17:00",2.287,"Approved","OW352"
"2023-05-22 18:00",2.298,"Approved","OW352"
"2023-05-22 19:00",2.307,"Approved","OW352"
"2023-05-22 20:00",2.315,"Approved","OW352"
"2023-05-22 21:00",2.321,"Approved","OW352"
"2023-05-22 22:00",2.328,"Approved","OW352"
"2023-05-22 23:00",2.292,"Approved","OW352"
"2023-05-23 00:00",2.282,"Approved","OW352"
"2023-05-23 01:00",2.285,"Approved","OW352"
"2023-05-23 02:00",2.281,"Approved","OW352"
"2023-05-23 03:00",2.322,"Approved","OW352"
"2023-05-23 04:00",2.331,"Approved","OW352"
"2023-05-23 05:00",2.34,"Approved","OW352"
"2023-05-23 06:00",2.347,"Approved","OW352"
"2023-05-23 07:00",2.359,"Approved","OW352"
"2023-05-23 08:00",2.368,"Approved","OW352"
"2023-05-23 09:00",2.373,"Approved","OW352"
"2023-05-23 10:00",2.378,"Approved","OW352"
"2023-05-23 11:00",2.358,"Approved","OW352"
"2023-05-23 12:00",2.346,"Approved","OW352"
"2023-05-23 13:00",2.345,"Approved","OW352"
"2023-05-23 14:00",2.342,"Approved","OW352"
"2023-05-23 15:00",2.345,"Approved","OW352"
"2023-05-23 16:00",2.347,"Approved","OW352"
"2023-05-23 17:00",2.382,"Approved","OW352"
"2023-05-23 18:00",2.395,"Approved","OW352"
"2023-05-23 19:00",2.409,"Approved","OW352"
"2023-05-23 20:00",2.42,"Approved","OW352"
"2023-05-23 21:00",2.427,"Approved","OW352"
"2023-05-23 22:00",2.394,"Approved","OW352"
"2023-05-23 23:00",2.389,"Approved","OW352"
"2023-05-24 00:00",2.387,"Approved","OW352"
"2023-05-24 01:00",2.387,"Approved","OW352"
"2023-05-24 02:00",2.386,"Approved","OW352"
"2023-05-24 03:00",2.388,"Approved","OW352"
"2023-05-24 04:00",2.391,"Approved","OW352"
"2023-05-24 05:00",2.39,"Approved","OW352"
"2023-05-24 06:00",2.395,"Approved","OW352"
"2023-05-24 07:00",2.395,"Approved","OW352"
"2023-05-24 08:00",2.443,"Approved","OW352"
"2023-05-24 09:00",2.46,"Approved","OW352"
"2023-05-24 10:00",2.465,"Approved","OW352"
"2023-05-24 11:00",2.477,"Approved","OW352"
"2023-05-24 12:00",2.489,"Approved","OW352"
"2023-05-24 13:00",2.495,"Approved","OW352"
"2023-05-24 14:00",2.503,"Approved","OW352"
"2023-05-24 15:00",2.51,"Approved","OW352"
"2023-05-24 16:00",2.522,"Approved","OW352"
"2023-05-24 17:00",2.524,"Approved","OW352"
"2023-05-24 18:00",2.528,"Approved","OW352"
"2023-05-24 19:00",2.534,"Approved","OW352"
"2023-05-24 20:00",2.539,"Approved","OW352"
"2023-05-24 21:00",2.545,"Approved","OW352"
"2023-05-24 22:00",2.548,"Approved","OW352"
"2023-05-24 23:00",2.55,"Approved","OW352"
"2023-05-25 00:00",2.552,"Approved","OW352"
"2023-05-25 01:00",2.548,"Approved","OW352"
"2023-05-25 02:00",2.505,"Approved","OW352"
"2023-05-25 03:00",2.493,"Approved","OW352"
"2023-05-25 04:00",2.492,"Approved","OW352"
"2023-05-25 05:00",2.671,"Approved","OW352"
"2023-05-25 06:00",2.694,"Approved","OW352"
"2023-05-25 07:00",2.704,"Approved","OW352"
"2023-05-25 08:00",2.71,"Approved","OW352"
"2023-05-25 09:00",2.675,"Approved","OW352"
"2023-05-25 10:00",2.551,"Approved","OW352"
"2023-05-25 11:00",2.5,"Approved","OW352"
"2023-05-25 12:00",2.489,"Approved","OW352"
"2023-05-25 13:00",2.482,"Approved","OW352"
"2023-05-25 14:00",2.48,"Approved","OW352"
"2023-05-25 15:00",2.678,"Approved","OW352"
"2023-05-25 16:00",2.694,"Approved","OW352"
"2023-05-25 17:00",2.702,"Approved","OW352"
"2023-05-25 18:00",2.712,"Approved","OW352"
"2023-05-25 19:00",2.538,"Approved","OW352"
"2023-05-25 20:00",2.496,"Approved","OW352"
"2023-05-25 21:00",2.479,"Approved","OW352"
"2023-05-25 22:00",2.465,"Approved","OW352"
"2023-05-25 23:00",2.469,"Approved","OW352"
"2023-05-26 00:00",2.452,"Approved","OW352"
"2023-05-26 01:00",2.441,"Approved","OW352"
"2023-05-26 02:00",2.434,"Approved","OW352"
"2023-05-26 03:00",2.429,"Approved","OW352"
"2023-05-26 04:00",2.426,"Approved","OW352"
"2023-05-26 05:00",2.42,"Approved","OW352"
"2023-05-26 06:00",2.417,"Approved","OW352"
"2023-05-26 07:00",2.415,"Approved","OW352"
"2023-05-26 08:00",2.611,"Approved","OW352"
"2023-05-26 09:00",2.628,"Approved","OW352"
"2023-05-26 10:00",2.636,"Approved","OW352"
"2023-05-26 11:00",2.637,"Approved","OW352"
"2023-05-26 12:00",2.651,"Approved","OW352"
"2023-05-26 13:00",2.648,"Approved","OW352"
"2023-05-26 14:00",2.653,"Approved","OW352"
"2023-05-26 15:00",2.654,"Approved","OW352"
"2023-05-26 16:00",2.654,"Approved","OW352"
"2023-05-26 17:00",2.661,"Approved","OW352"
"2023-05-26 18:00",2.654,"Approved","OW352"
"2023-05-26 19:00",2.659,"Approved","OW352"
"2023-05-26 20:00",2.656,"Approved","OW352"
"2023-05-26 21:00",2.653,"Approved","OW352"
"2023-05-26 22:00",2.651,"Approved","OW352"
"2023-05-26 23:00",2.449,"Approved","OW352"
"2023-05-27 00:00",2.43,"Approved","OW352"
"2023-05-27 01:00",2.407,"Approved","OW352"
"2023-05-27 02:00",2.399,"Approved","OW352"
"2023-05-27 03:00",2.426,"Approved","OW352"
"2023-05-27 04:00",2.436,"Approved","OW352"
"2023-05-27 05:00",2.441,"Approved","OW352"
"2023-05-27 06:00",2.444,"Approved","OW352"
"2023-05-27 07:00",2.443,"Approved","OW352"
"2023-05-27 08:00",2.446,"Approved","OW352"
"2023-05-27 09:00",2.446,"Approved","OW352"
"2023-05-27 10:00",2.45,"Approved","OW352"
"2023-05-27 11:00",2.456,"Approved","OW352"
"2023-05-27 12:00",2.457,"Approved","OW352"
"2023-05-27 13:00",2.424,"Approved","OW352"
"2023-05-27 14:00",2.409,"Approved","OW352"
"2023-05-27 15:00",2.408,"Approved","OW352"
"2023-05-27 16:00",2.404,"Approved","OW352"
"2023-05-27 17:00",2.578,"Approved","OW352"
"2023-05-27 18:00",2.603,"Approved","OW352"
"2023-05-27 19:00",2.611,"Approved","OW352"
"2023-05-27 20:00",2.615,"Approved","OW352"
"2023-05-27 21:00",2.609,"Approved","OW352"
"2023-05-27 22:00",2.405,"Approved","OW352"
"2023-05-27 23:00",2.385,"Approved","OW352"
"2023-05-28 00:00",2.373,"Approved","OW352"
"2023-05-28 01:00",2.363,"Approved","OW352"
"2023-05-28 02:00",2.386,"Approved","OW352"
"2023-05-28 03:00",2.393,"Approved","OW352"
"2023-05-28 04:00",2.397,"Approved","OW352"